FlightSource - Aviation Photo Database

World Wide Airport Lookup


Search by ICAO
Or
Search by City

FlightSource.ca - Aviation Photo Database - Ching Chuan Kang Air Base Information
Airport Identification
Name: Ching Chuan Kang Air Base
ICAO: RCMQ
IATA:
Airport Location
City:
Region: TXQ
Country: Taiwan
Continent: AS
Latitude: 24.2647
Longitude: 120.621
Airport Information
Type: Medium Airport
Elevation: 663 Feet ASL
Flight Status: RCMQ
More Info: RCMQ
Airport Weather    
Metar: RCMQ 260630Z 25012KT 9999 FEW012 SCT025 BKN200 31/23 Q1009 NOSIG RMK A2980
TAF:


Advertisement